Tracking 19730 objects as of 27-Jun-2019
HD Live streaming from Space Station
objects crossing your sky now

FENGYUN 2H DEB

Track FENGYUN 2H DEB now!


NORAD ID: 43645
Int'l Code: 2018-050D
Perigee: 35,730.5 km
Apogee: 35,872.4 km
Inclination: 1.5 °
Period: 1,436.5 minutes
Semi major axis: 42172 km
RCS: Unknown
Launch date: June 5, 2018
Source: People's Republic of China (PRC)
Launch site: Xichang Space Center, China (XSC)

Note: This is SATELLITE DEBRIS
aabbcc
Your satellite tracking list
Your tracking list is empty




NASA's NSSDC Master Catalog

Two Line Element Set (TLE):
1 43645U 18050D   19177.86278701  .00000084  00000-0  00000+0 0  9991
2 43645   1.4882 281.7377 0016829 320.9354  39.6857  1.00244233  3374
Source of the keplerian elements: AFSPC